Theta_e
318 314 311 313 298 295 291 295 297 302 301 304 310 311 315 316 316 310 336 335 339 341 343 343 345 348 350 350 350 348 346 344 344 344 343 342 339 337 336 338 339 339 340 341 340 339 337 337 339
315 315 313 307 294 289 290 297 299 301 304 306 306 307 315 311 321 322 321 330 339 342 343 343 343 346 348 350 349 348 346 345 345 344 342 340 339 338 336 336 338 337 335 335 337 337 336 335 336
307 314 306 300 295 289 293 298 300 304 306 305 305 316 308 299 309 305 305 319 339 342 343 343 343 346 346 348 348 348 347 347 346 344 343 341 339 337 337 337 335 335 335 335 336 337 333 334 335
306 311 307 297 295 296 297 298 303 303 305 307 307 307 301 300 300 301 303 309 332 338 343 341 344 347 346 346 347 347 347 347 346 346 344 342 340 341 340 339 337 336 335 333 335 335 333 333 334
309 306 298 295 296 296 296 299 303 301 301 302 305 303 299 299 299 299 300 304 311 336 342 342 343 345 346 346 346 347 346 346 346 346 345 344 342 341 340 338 336 336 335 334 336 334 333 331 333
304 304 295 292 295 297 297 298 301 300 300 301 301 301 296 297 296 297 299 300 306 324 341 343 338 340 343 344 344 345 346 345 345 345 344 344 343 341 340 337 337 335 335 333 335 333 334 331 329
302 299 295 295 296 296 296 297 296 296 297 298 300 298 295 293 295 296 296 299 301 307 321 339 342 340 335 338 339 341 342 343 344 343 343 341 341 340 339 338 338 336 335 334 332 333 333 331 329
305 301 296 294 294 290 293 296 293 293 295 296 295 286 286 291 295 295 295 296 297 299 301 303 324 340 341 340 333 334 337 338 340 339 337 335 335 335 335 333 336 337 335 334 331 330 333 331 329
307 295 291 289 290 290 289 287 289 289 287 290 291 288 290 293 295 295 293 293 295 299 300 300 304 317 334 339 338 330 331 333 334 334 331 331 334 334 332 330 332 336 335 332 330 330 333 330 328
297 290 288 288 285 284 286 285 285 285 286 286 287 289 291 293 293 292 292 294 295 297 299 302 303 307 315 331 338 337 337 336 336 336 335 334 334 333 331 326 327 330 331 332 332 330 330 326 319
291 289 289 286 287 287 286 285 287 284 283 283 284 287 290 291 292 292 293 293 295 298 302 305 310 315 315 317 330 336 335 335 335 336 335 334 334 332 329 327 326 325 322 325 326 328 327 321 318
288 286 289 289 287 287 284 287 285 285 284 288 286 288 290 290 291 291 292 294 295 297 298 302 306 310 311 312 313 317 325 333 333 335 335 333 333 331 329 326 324 323 324 323 323 322 322 320 318
285 284 286 287 288 286 288 285 284 284 285 288 289 291 289 290 290 291 293 294 295 295 296 297 302 306 308 310 310 311 314 316 319 333 336 335 332 331 329 328 324 323 324 323 322 322 322 321 319
286 286 284 286 286 287 285 285 286 285 287 286 288 287 287 289 290 289 291 292 294 295 295 297 298 299 303 306 307 307 310 311 316 328 333 336 334 332 330 328 326 324 323 324 323 321 320 320 319
287 283 285 283 285 285 285 284 285 285 287 286 287 287 288 290 291 289 290 290 292 294 295 296 297 298 300 302 304 305 306 310 311 313 311 311 314 333 331 329 327 327 325 323 322 321 319 318 317
282 282 278 283 285 285 284 280 285 287 285 284 285 285 288 289 290 290 293 291 292 292 293 295 297 297 299 301 302 304 304 307 309 310 312 311 311 310 310 327 328 327 326 324 321 320 318 316 314
280 276 277 281 284 284 282 279 285 287 285 284 284 284 286 287 289 289 291 290 292 292 292 293 294 294 296 301 303 302 303 305 306 308 310 311 309 310 310 310 316 329 326 324 323 320 318 315 314
274 274 277 277 282 281 280 281 284 286 285 284 284 283 284 287 288 289 291 292 292 292 292 292 294 294 295 297 301 301 300 301 301 304 307 309 308 308 310 309 310 309 327 325 323 320 319 317 315
278 276 275 279 282 280 278 279 282 284 284 282 283 283 284 286 288 289 291 291 291 292 291 292 292 293 294 294 295 296 296 298 299 300 303 306 307 308 307 307 309 310 309 310 324 322 318 317 318
278 276 276 279 282 280 278 279 283 284 284 283 283 284 285 285 287 289 289 289 289 289 290 291 292 294 294 295 296 298 298 299 300 301 301 303 305 306 306 307 307 309 309 308 308 322 319 318 317
278 277 275 276 279 280 277 276 281 283 283 284 285 286 286 286 286 287 287 288 288 288 289 291 293 294 294 295 296 296 297 297 296 296 297 299 301 302 304 307 307 309 309 308 308 308 320 315 316
276 280 279 278 275 272 277 273 276 281 281 283 285 284 284 286 287 287 287 287 288 289 289 291 293 294 295 295 294 293 292 291 293 294 297 298 300 300 302 305 307 307 308 308 308 310 307 318 314
278 280 278 278 274 273 273 271 276 279 279 281 283 284 285 286 286 286 287 288 289 290 289 290 291 293 294 294 293 292 292 293 293 294 295 296 298 300 301 301 305 306 308 308 308 308 307 315 317
282 279 278 276 273 268 274 272 275 278 281 281 283 284 285 284 286 286 287 289 288 289 289 290 291 292 293 293 292 292 291 291 291 292 292 294 295 297 299 301 302 305 306 307 307 308 308 307 317
279 276 271 270 269 271 274 273 278 281 282 283 283 284 284 284 285 285 286 287 287 287 288 289 290 290 292 292 293 293 291 291 291 291 292 292 293 295 297 299 300 301 304 306 307 307 308 308 307
276 275 272 267 270 272 275 273 279 283 284 285 285 284 283 285 286 285 286 286 286 287 287 288 288 289 290 292 292 292 292 292 292 292 292 292 294 294 296 298 299 301 303 302 306 306 309 308 309
276 272 276 271 269 268 273 276 282 283 284 282 282 282 283 284 285 285 286 286 286 286 286 287 287 290 291 291 291 291 292 292 291 292 292 292 294 295 297 298 298 299 300 303 304 306 307 307 309
277 280 273 271 264 263 273 275 278 280 281 282 281 282 284 284 285 285 286 286 286 286 286 287 288 289 290 291 290 289 289 290 291 293 293 293 294 296 297 298 299 300 300 302 304 305 307 308 310
274 272 272 272 272 268 268 272 280 281 282 282 282 283 283 284 284 285 285 285 285 286 285 286 288 288 289 289 288 289 289 289 291 292 293 294 294 294 294 295 295 296 298 300 301 303 306 305 309
277 276 275 269 268 270 272 271 283 282 283 282 283 283 283 285 284 284 284 284 285 285 286 287 288 287 288 288 288 289 289 289 290 291 291 292 292 293 293 294 294 296 297 299 301 302 305 306 307
Wind_Speed
14 13 3 5 6 6 3 4 4 6 4 3 4 7 13 5 4 7 4 12 8 8 8 9 11 11 9 10 9 11 12 11 10 9 8 9 7 7 7 6 4 5 6 11 11 12 9 9 10
7 7 4 2 5 3 2 5 9 5 1 5 4 7 8 5 8 6 8 19 8 10 8 7 9 9 9 8 11 11 11 12 12 11 10 9 9 8 6 6 5 6 5 6 7 9 7 8 9
8 5 4 4 2 3 4 6 6 8 10 8 7 10 6 8 10 5 15 19 10 9 10 8 11 8 7 7 9 12 13 13 13 13 12 11 9 9 8 7 6 6 7 8 7 10 6 7 10
4 5 4 4 3 7 7 2 6 7 9 11 2 9 8 7 5 7 14 18 12 10 6 11 13 16 12 8 8 11 13 13 13 13 14 12 11 9 8 8 8 6 7 9 9 10 7 7 9
3 2 2 2 5 3 3 4 7 7 4 7 5 1 6 6 8 13 14 14 16 7 4 5 12 12 12 12 11 10 12 13 12 13 13 13 13 11 10 9 9 8 9 10 11 10 9 7 8
4 3 3 1 5 1 4 9 6 7 6 6 9 4 5 2 13 11 14 12 11 11 5 3 6 7 11 13 12 11 11 13 13 13 14 15 14 13 12 12 11 11 11 11 9 10 10 8 7
4 4 3 3 4 4 6 8 9 4 6 6 8 5 3 23 11 9 9 12 10 13 12 7 4 7 8 9 10 11 10 12 12 14 14 15 14 14 13 13 13 12 12 12 13 10 10 9 8
3 4 1 6 5 4 7 6 4 9 3 7 9 6 7 11 14 8 8 10 12 8 10 11 10 5 6 7 10 11 12 12 11 12 12 13 13 12 13 12 12 14 15 12 15 14 11 10 9
4 4 2 5 4 1 7 7 8 4 4 5 5 3 5 9 9 11 9 9 11 13 12 8 9 12 12 6 7 12 14 15 14 12 12 12 8 10 10 11 13 14 13 14 15 14 12 10 9
6 5 3 3 2 3 5 4 5 6 6 6 9 5 6 6 8 10 10 12 12 15 15 12 10 12 13 12 7 4 10 9 10 10 10 9 10 10 11 11 14 14 13 13 14 15 13 9 4
5 4 6 4 4 4 4 6 6 4 3 1 6 8 9 8 9 8 8 7 8 8 11 13 11 10 11 12 10 5 3 5 7 11 10 11 9 8 7 6 7 8 12 7 9 9 6 7 5
8 8 5 1 2 2 3 7 7 3 3 1 3 3 5 7 7 6 7 7 8 8 10 13 12 8 10 7 7 9 10 7 6 8 12 9 8 9 9 7 8 8 7 9 8 6 7 7 8
7 4 4 3 6 4 4 5 4 2 1 3 5 4 4 5 5 4 5 5 6 7 8 9 11 10 10 9 8 8 8 8 11 10 10 11 10 10 10 9 8 9 8 10 9 9 9 10 10
3 6 3 4 5 4 4 5 5 4 4 2 2 1 1 4 5 3 5 5 5 5 6 6 7 7 8 8 9 8 7 9 10 11 9 13 11 12 12 10 10 10 10 10 10 10 10 10 9
4 4 1 3 5 1 4 3 7 5 4 2 6 6 3 5 6 4 3 3 3 3 5 6 5 5 6 6 5 6 8 8 8 7 10 12 19 12 15 12 11 12 11 13 10 11 10 9 9
3 4 4 1 6 2 4 8 4 7 5 3 6 7 6 6 5 5 6 4 4 5 7 7 6 6 6 5 5 5 7 7 6 7 5 8 11 11 15 12 14 13 11 12 11 10 10 10 10
8 2 2 6 2 3 5 8 7 3 5 7 6 7 6 6 6 6 7 5 6 6 7 7 7 7 7 5 4 5 7 5 6 7 6 8 9 9 10 12 15 14 12 11 12 12 12 11 10
2 3 4 4 5 3 6 19 14 16 10 11 7 7 5 6 7 6 6 6 6 6 6 7 6 7 7 5 5 4 4 4 4 6 7 8 7 9 8 8 13 13 9 13 11 15 13 12 11
3 2 3 5 2 7 4 15 19 10 8 8 8 7 6 8 7 4 5 6 6 6 7 8 7 8 4 3 5 7 6 5 6 5 9 9 8 8 7 7 7 8 9 14 13 18 16 13 12
2 0 4 7 3 5 8 20 18 11 10 9 9 8 8 6 6 6 6 5 6 6 7 8 7 7 5 4 4 4 4 7 6 7 8 8 9 9 8 8 7 9 7 13 14 18 15 12 13
2 1 1 5 9 5 8 9 6 3 4 5 7 6 6 9 7 7 6 7 6 7 8 7 8 8 7 7 5 5 4 4 4 6 7 8 10 10 11 11 10 5 6 10 9 15 18 15 14
1 2 2 5 6 4 5 8 7 4 3 6 8 7 9 9 6 5 8 8 7 9 8 8 8 8 7 7 6 7 10 11 8 9 9 10 10 11 12 13 12 11 9 9 9 10 13 18 17
1 2 2 1 2 4 2 3 11 2 5 8 9 9 10 8 6 8 9 8 8 8 8 8 8 8 7 6 7 7 11 9 8 8 11 11 10 11 13 13 13 13 9 10 10 10 13 16 16
3 3 2 2 2 3 4 3 9 4 6 4 5 9 8 5 7 8 8 8 8 8 8 7 8 8 7 7 7 10 15 13 9 10 10 10 9 9 12 13 13 13 11 11 9 11 13 13 18
3 4 5 7 5 5 3 2 14 5 5 7 7 8 6 6 7 8 10 9 8 9 8 7 8 7 7 7 14 13 11 10 12 13 12 14 11 10 12 13 13 12 13 13 13 13 11 11 13
2 4 6 5 3 5 5 9 9 6 7 6 6 6 2 6 8 9 10 9 8 9 9 8 6 6 7 12 12 9 10 8 10 12 12 11 11 12 15 14 16 16 16 16 14 13 10 11 15
1 2 2 4 2 3 5 10 12 8 8 1 3 1 6 8 8 8 9 8 9 8 8 6 7 8 12 12 9 11 12 15 14 15 14 12 14 13 16 16 16 18 17 17 16 14 10 12 15
1 4 4 3 1 6 6 7 12 5 5 6 6 7 9 7 8 8 8 8 7 7 6 7 7 11 10 10 7 10 15 15 15 14 16 15 15 16 15 16 16 18 17 17 17 15 14 13 14
1 1 4 3 4 5 4 9 8 7 7 8 8 8 8 8 8 8 7 7 8 6 5 6 10 9 12 5 10 13 14 15 15 14 14 13 14 15 17 17 17 18 19 18 17 17 19 17 17
1 4 6 6 6 4 2 15 6 7 7 7 7 7 8 8 8 8 8 8 7 7 6 8 10 9 9 12 16 14 14 14 13 13 15 14 16 15 16 17 18 19 18 17 19 19 18 17 18
Wind_Direction
319 308 274 31 51 67 9 38 41 33 44 333 295 84 108 54 59 88 316 335 355 140 165 159 160 171 186 176 166 163 167 177 185 183 180 186 185 178 159 146 114 139 122 133 113 119 120 119 117
314 312 31 63 84 95 68 325 24 19 221 323 8 90 36 73 14 67 5 335 341 144 158 158 163 174 191 176 179 177 183 188 196 183 185 189 183 182 173 173 167 155 176 150 145 122 138 136 141
296 181 59 83 85 111 106 330 1 359 28 3 4 53 54 337 33 8 329 329 338 145 159 169 169 175 199 208 191 190 194 203 198 189 193 196 202 206 188 192 182 186 202 188 167 133 148 151 156
340 5 2 78 134 347 129 327 11 14 5 18 43 75 87 43 24 307 324 341 8 19 184 173 181 176 188 208 221 212 208 210 209 203 195 201 207 211 195 193 180 192 206 209 194 148 160 157 159
26 57 18 313 73 84 32 17 52 48 31 349 31 19 102 42 353 347 345 342 343 13 58 204 185 185 188 194 207 226 226 223 219 210 210 200 203 204 207 192 191 195 206 196 206 170 171 175 165
15 91 37 32 69 221 20 12 54 28 14 357 13 130 104 74 7 344 340 344 337 353 21 178 235 230 195 201 205 215 231 233 233 219 213 208 199 198 203 202 205 197 200 214 209 195 182 192 189
113 85 226 295 179 44 13 331 42 38 354 355 319 2 157 0 352 339 336 345 353 356 8 359 267 220 240 218 214 213 229 237 240 231 221 220 204 197 198 200 201 207 204 208 219 202 206 202 212
113 106 258 19 341 79 350 10 17 45 330 334 8 23 344 325 336 347 351 350 355 353 350 345 339 290 239 232 224 222 222 229 240 238 223 221 208 202 193 197 202 205 218 216 218 217 200 206 224
14 68 37 356 33 65 352 29 338 294 22 66 42 77 265 305 333 358 2 354 355 355 352 343 345 348 325 278 246 235 228 222 222 227 234 221 210 207 206 199 197 206 217 218 225 224 195 202 221
60 71 87 356 35 13 335 62 320 26 15 355 348 347 348 1 6 11 2 3 360 352 340 355 358 359 358 333 296 239 260 239 224 217 206 219 218 210 201 203 200 205 203 214 220 218 191 195 193
34 89 158 42 33 5 0 8 324 14 38 53 328 324 354 4 4 15 10 360 355 351 5 354 355 7 7 358 336 317 255 260 241 222 213 204 210 217 212 207 207 210 206 200 207 198 198 183 193
95 40 75 56 46 65 2 301 335 30 187 305 310 349 4 0 360 6 11 2 2 357 1 358 351 4 6 5 1 351 353 308 266 247 219 207 208 209 214 206 204 204 200 195 195 187 180 191 199
75 135 76 121 32 87 13 314 297 250 130 330 309 58 9 335 344 354 356 351 357 1 351 355 360 2 355 358 349 344 338 342 324 286 243 218 215 215 207 208 197 204 201 198 193 195 193 196 203
109 109 128 76 10 78 17 285 12 230 179 335 341 258 337 323 306 346 356 340 358 343 335 339 351 352 355 353 345 338 332 331 330 325 272 250 215 214 214 212 198 201 201 203 198 195 200 201 199
130 89 118 12 340 17 329 270 219 204 129 355 331 297 249 282 303 282 270 301 309 307 307 313 317 337 343 335 334 332 327 329 332 359 10 3 2 242 220 217 209 201 196 202 203 199 195 202 201
110 56 44 337 356 342 64 278 217 199 162 232 287 294 284 286 277 290 260 270 299 308 305 307 316 316 305 317 318 318 318 318 313 323 324 354 354 353 356 295 212 208 197 191 197 204 200 196 201
6 135 24 331 92 319 70 272 256 193 272 236 264 280 281 307 310 301 297 303 307 310 314 308 315 315 310 280 276 285 295 298 308 307 312 317 319 321 347 322 329 219 204 202 196 199 201 194 201
335 22 339 278 336 331 262 262 261 269 254 231 230 273 291 288 285 294 321 322 321 314 314 309 307 303 304 307 284 272 269 273 290 299 302 308 312 308 311 313 329 338 248 208 207 203 200 196 196
101 49 297 264 38 343 259 281 275 252 263 227 224 237 265 269 256 284 306 311 315 312 323 312 312 301 311 307 313 309 297 292 292 296 303 297 299 304 308 298 298 330 312 331 268 203 203 201 183
96 358 309 294 353 346 301 287 284 246 230 192 205 224 248 265 280 284 298 305 301 280 293 300 299 299 294 280 267 251 270 291 274 287 290 287 293 302 293 290 279 271 304 313 299 248 202 202 185
26 245 36 241 319 271 293 291 319 357 177 172 197 214 242 239 260 283 283 275 282 292 287 285 283 285 291 291 293 286 276 283 290 288 286 285 286 289 294 274 261 259 253 271 323 319 219 198 192
232 54 359 314 18 290 40 282 308 280 217 202 223 237 249 251 269 279 281 287 285 276 281 282 283 285 287 301 297 290 298 295 293 290 288 282 281 285 284 286 277 272 262 267 267 317 293 244 196
192 358 249 266 337 354 312 65 270 96 258 245 243 244 236 242 255 272 290 293 279 283 283 280 283 286 291 282 281 292 292 281 283 286 287 278 275 274 271 276 273 263 258 257 261 272 282 275 206
295 312 102 38 68 24 256 131 280 207 212 215 215 215 221 284 292 308 302 289 288 294 290 293 289 281 281 289 293 296 291 289 291 293 292 291 283 279 271 269 268 274 271 267 276 279 275 291 271
31 47 341 353 5 232 330 318 247 242 220 196 199 230 268 299 312 300 296 300 294 294 294 290 294 302 314 322 313 301 290 291 298 299 292 290 287 284 282 277 270 270 273 270 251 257 259 276 282
17 136 150 240 279 283 318 243 254 233 201 201 206 217 265 310 296 294 293 293 297 296 290 299 319 308 314 321 309 307 295 296 297 296 293 286 282 286 285 274 271 266 267 269 265 258 251 268 265
172 80 158 98 71 33 234 283 295 238 259 152 207 93 300 293 287 280 292 297 289 290 306 317 317 323 326 316 318 318 318 309 299 292 291 289 285 283 282 279 277 274 268 270 272 272 256 260 267
146 166 77 11 357 288 278 270 237 273 236 240 222 252 277 295 301 296 291 290 288 301 313 323 319 315 312 311 327 323 315 305 295 294 294 287 283 284 294 292 285 278 274 272 271 263 255 255 254
96 62 44 113 156 194 292 257 222 226 203 203 224 246 278 286 284 283 293 292 290 301 324 321 324 318 320 339 317 315 314 306 299 296 296 306 312 307 300 293 288 283 278 278 274 268 253 250 254
316 200 162 134 242 238 179 265 255 253 218 202 243 269 277 273 270 288 297 295 298 319 335 335 320 312 324 314 317 307 304 303 302 308 304 304 297 296 292 292 284 277 272 270 268 269 270 255 246